Showing default

YUNYAO-1 47, 63348

Orbit data source: Space-Track

YUNYAO-1 47, 63348 is a payload satellite owned by Yunyao yuhang (CN) in SSO that was launched on Fri, 21 Mar 2025 UTC via a GUSHENXING 1 launch vehicle from the Jiuquan Satellite Launch Center, China (JSC). Payload-class satellites include a variety of spacecraft equipped with specific instruments for various scientific and technological missions. These include communications satellites like Starlink; space stations such as the ISS; scientific satellites like the Hubble; Earth observation satellites from companies like Planet Labs, Umbra, and HawkEye 360; GPS; miniature CubeSats for education and research; and military/defense satellites.

Loading next visibility...
Identifier
63348, 2025-059E
Orbit
SSO
Country
Flag of CNCN / PRC
Related business
Manufacturer
Changguang WJ
Mission
Operational spacecraft
Bus & Motor
YY-1, Unknown motor
Mass
~50 kg wet, ~50 kg dry
Launch date (UTC)
2025-03-21 (6 months ago)
Launch vehicle
GUSHENXING 1
Launch site
Jiuquan Satellite Launch Center, China (JSC)
Object type
Payload
Rocket body
Debris
Shape & HBR
Unknown
Radar Cross Section
Medium (>0.1 m² and <1 m²)

Expand to show TLE details & history
Last TLE update: 9 hours ago

TLE from 9 hours ago
0 YUNYAO-1 47
1 63348U 25059E   25259.55145394  .00003660  00000-0  23765-3 0  9995
2 63348  97.6030  77.9783 0017389  20.8859 339.3076 15.08554801 27009
Epoch: 2025-09-16T13:14Z
TLE epoch observation values (Epoch: 2025-09-16T13:14:05.62Z)
Latitude
-0.00002°
Longitude
-116.28524°
Altitude
532.43 km
Speed
7.603 km/s
True Right ascension
05h 11m 54s
True Declination
0° 00' 00"
Sunlit
Object was in daylight at epoch
Visualization orbit readout
Latitude
Unknown
Longitude
Unknown
Altitude
Unknown
Speed
Unknown
Apparent Right ascension
Unknown
Apparent Declination
Unknown
Sunlit
N/A
Visualization observer readout
Local Sidereal Time
14:44:50
Azimuth
Unknown
Elevation
Unknown
Doppler factor
Unknown
Orbital elements
Apogee altitude
549.631 km
Perigee altitude
525.579 km
Semi-major axis
6,915.742 km
Eccentricity
0.00174
Inclination
97.603°
RAAN
77.9783°
Arg. of periapsis
20.8859°
True anomaly
339.23705°
Mean anomaly
339.3076°
Eccentric anomaly
339.27234°
Mean motion
3.77385 °/min
Orbital period
95.39 mins
BSTAR
0.00023765
Loading maneuver chart data...
Computing Atmospheric mass density...
Loading historical data...
Loading historical data...
Loading historical data...
Loading historical data...
Loading historical data...
Loading historical data...
Loading historical data...
Other satellites on launch #59 in the year 2025 (2025-03-21 UTC)

Documentation

Showing up to 5 results
|